Tracking 18980 objects as of 21-Feb-2018
HD Live streaming from Space Station
objects crossing your sky now

FENGYUN 1C DEB

Track FENGYUN 1C DEB now!
10-day predictions


NORAD ID: 31431
Int'l Code: 1999-025BTT
Perigee: 816.8 km
Apogee: 1,037.3 km
Inclination: 98.5 °
Period: 103.4 minutes
Semi major axis: 7298 km
RCS: 0.0051 m2 (small)
Launch date: May 10, 1999
Source: People's Republic of China (PRC)
Launch site: Taiyaun Space Center, China (TSC)

Note: This is SATELLITE DEBRIS
aabbcc
Your satellite tracking list
Your tracking list is empty




NASA's NSSDC Master Catalog

Two Line Element Set (TLE):
1 31431U 99025BTT 18051.68122004 +.00000377 +00000-0 +29312-3 0  9992
2 31431 098.5318 115.6738 0151020 113.2186 248.4960 13.92495548547537
Source of the keplerian elements: AFSPC